Theta_e
303 304 304 304 304 305 306 306 306 307 308 308 309 310 310 310 311 310 310 309 306 307 305 304 304 305 303 302 301 300 300 298 295 299 296 292 288 287 288 288 290 290 291
299 299 299 299 300 301 301 302 303 303 304 304 304 305 306 306 307 307 306 307 306 304 304 302 303 303 302 303 302 299 298 299 297 295 297 288 287 287 287 286 287 288 288
296 296 296 295 296 296 297 297 298 298 300 300 300 300 301 301 301 302 302 302 303 304 304 302 302 301 299 300 299 298 298 297 296 294 295 285 286 285 284 284 285 286 287
294 294 293 293 293 293 294 294 294 295 295 296 296 296 296 296 295 295 294 297 298 300 300 300 300 298 297 297 296 296 295 294 294 293 292 289 283 283 284 283 282 284 284
293 292 291 291 291 292 291 291 292 292 292 293 292 293 294 294 292 294 292 293 293 294 294 294 294 293 292 295 294 294 293 292 292 290 290 285 282 280 281 283 282 282 282
291 289 289 289 289 289 289 289 290 290 291 291 291 291 291 290 291 292 292 291 291 290 290 291 291 288 289 291 293 294 294 290 288 290 289 289 287 285 285 282 281 279 277
289 288 287 287 287 288 288 288 288 288 289 289 289 290 290 291 290 290 290 290 290 290 290 289 289 289 288 290 291 292 292 293 294 291 288 289 288 287 284 282 281 280 281
287 286 286 286 285 286 286 286 286 287 286 286 287 287 287 288 288 289 289 290 290 290 291 290 290 289 290 288 288 287 288 288 289 290 291 291 290 287 285 284 283 282 282
286 285 285 284 283 283 283 284 285 285 285 285 285 285 285 285 287 287 288 289 288 288 289 290 289 289 289 289 287 286 286 286 289 290 292 293 291 289 286 284 281 280 280
284 284 284 284 282 282 284 283 284 283 283 283 284 285 284 283 285 286 287 288 286 287 288 288 286 286 287 288 286 285 284 286 286 285 286 288 290 288 288 285 284 281 282
283 283 283 283 281 282 283 283 282 282 282 281 282 283 283 284 283 285 286 286 286 285 285 285 287 287 287 287 288 286 285 286 286 285 285 285 285 285 285 285 285 285 282
282 282 281 280 281 282 281 282 282 282 281 282 282 283 284 284 283 284 284 285 286 285 285 286 286 286 286 287 286 287 288 288 285 284 284 284 284 284 284 284 285 285 285
277 277 278 278 279 280 280 281 282 283 282 282 282 282 282 283 283 283 282 284 284 284 285 285 285 285 285 285 285 285 285 285 285 284 284 284 284 284 284 283 283 282 282
273 275 277 277 278 279 280 281 281 282 282 281 281 280 280 281 282 283 284 284 283 285 285 285 284 284 284 284 284 285 285 285 285 284 284 283 283 283 282 282 280 280 279
271 273 275 277 277 277 279 280 280 281 282 281 282 281 280 281 282 284 285 284 284 284 282 284 283 283 283 283 284 284 284 284 283 284 283 282 281 281 280 281 280 280 279
268 272 273 272 274 275 277 279 282 282 283 285 285 284 284 284 285 285 284 284 285 283 283 282 281 281 281 282 282 283 283 283 283 284 283 282 281 280 279 278 279 279 278
265 267 270 270 272 273 275 278 277 280 282 284 283 282 282 282 282 283 285 284 285 283 282 281 281 280 280 281 281 281 280 280 281 282 282 281 281 279 279 277 277 276 275
263 265 267 270 271 272 274 277 278 277 277 280 282 281 280 281 280 281 283 284 282 280 279 279 278 278 278 278 278 279 278 278 277 277 277 278 279 278 277 276 275 274 274
264 267 268 269 270 271 272 274 277 277 278 279 279 278 277 277 278 276 277 280 279 276 275 274 274 274 274 275 275 274 274 274 274 274 273 273 274 275 273 273 272 271 271
265 265 266 267 269 270 272 274 276 277 278 278 277 277 276 274 276 273 272 273 273 272 272 271 270 271 271 271 272 272 272 271 271 271 270 270 271 272 270 270 270 270 269
264 265 265 267 269 270 271 272 274 275 277 277 275 274 273 273 271 269 268 268 268 269 268 268 268 267 268 268 269 269 269 269 268 268 268 268 268 268 268 268 268 267 267
265 265 266 266 268 269 269 270 272 273 275 273 271 271 269 269 268 267 265 264 263 263 264 265 265 264 263 264 265 267 266 265 266 266 266 265 266 266 266 266 266 265 264
264 264 265 266 267 267 268 269 270 271 271 270 269 268 267 266 265 264 263 262 262 262 261 262 262 261 261 261 261 262 263 263 263 263 264 264 264 264 264 264 263 262 262
263 263 264 265 265 265 266 267 267 267 267 267 267 266 265 265 264 263 263 262 262 261 261 260 260 260 260 260 260 260 260 260 260 260 260 261 261 260 261 261 261 260 261
262 262 262 263 263 263 264 265 265 265 265 265 265 265 264 264 263 263 262 262 261 261 261 260 260 259 259 259 258 258 258 260 258 256 257 258 259 258 257 258 259 259 259
260 261 261 261 261 262 262 262 263 263 263 264 264 264 263 263 263 263 262 261 261 261 261 260 260 259 258 258 258 258 257 258 256 253 256 257 257 257 256 257 256 257 257
Wind_Speed
9 8 7 6 6 5 5 4 4 5 5 5 6 7 7 8 8 7 8 7 8 9 8 9 11 10 8 7 7 8 9 9 12 8 3 3 5 7 6 7 7 9 9
8 8 8 8 7 7 7 7 6 6 6 6 6 7 7 8 8 10 11 9 9 9 9 9 11 7 11 11 8 11 10 10 9 16 7 5 7 6 5 6 7 6 8
7 7 8 7 7 8 8 7 7 7 7 7 7 7 8 7 8 9 10 11 10 10 11 11 11 11 11 9 9 9 9 8 9 10 10 2 4 3 4 4 6 8 7
7 8 9 9 9 8 8 7 6 6 6 6 5 6 6 7 7 6 6 8 9 9 9 10 11 11 12 10 10 11 9 9 9 10 10 6 4 3 4 4 6 7 7
8 8 9 8 8 7 8 8 7 6 6 6 6 6 6 6 4 7 7 8 9 9 9 9 9 9 11 11 7 8 8 9 9 9 10 4 4 4 6 4 7 4 6
7 8 8 8 7 7 7 7 7 7 8 8 8 8 8 4 9 12 11 7 8 8 9 9 8 8 10 15 17 18 13 9 11 9 10 11 11 7 6 6 5 3 4
6 7 7 8 9 10 10 10 10 11 12 11 11 11 11 10 11 12 11 7 7 8 8 7 7 6 8 10 13 17 18 20 21 13 14 13 11 8 6 7 9 6 5
4 4 6 7 7 8 8 8 8 7 8 9 10 10 11 9 16 16 13 9 9 10 10 9 9 10 9 8 9 10 11 10 11 11 14 13 11 5 11 8 10 7 2
5 6 6 6 6 7 7 8 7 7 8 7 7 8 8 9 15 16 13 7 7 9 8 9 10 9 12 16 10 11 12 11 11 19 20 19 15 15 13 5 7 8 5
6 6 6 6 6 7 7 8 6 6 8 7 8 7 8 10 15 15 12 6 8 8 7 8 10 9 14 16 10 10 12 11 8 7 7 10 10 10 16 10 7 9 5
5 5 6 6 6 7 7 7 7 8 7 8 9 8 8 7 9 15 15 7 7 8 8 7 7 12 15 15 15 9 10 10 8 7 6 3 2 4 5 5 5 5 6
7 8 7 7 7 7 8 8 8 7 8 8 8 7 6 6 9 11 14 14 12 8 8 7 6 12 14 15 12 15 15 13 3 5 5 4 4 4 4 4 4 4 4
8 7 8 8 8 8 9 9 8 7 7 7 6 7 7 7 6 10 11 13 13 8 7 8 10 11 13 12 13 14 11 4 3 5 5 2 2 4 6 6 7 9 8
8 9 9 8 10 9 7 7 7 7 7 6 6 6 7 7 6 6 6 6 7 7 4 4 7 9 9 9 7 5 2 2 3 3 0 2 3 3 4 4 4 5 5
8 9 10 8 9 10 9 8 8 8 8 7 6 6 6 7 7 12 10 5 4 4 4 3 4 4 4 5 3 3 2 1 2 1 1 2 2 3 4 3 3 3 3
8 7 7 8 8 8 9 9 11 16 17 16 13 4 2 6 13 12 10 7 6 3 3 3 3 3 4 5 4 3 4 3 3 2 1 1 2 3 4 4 3 3 4
7 9 8 9 8 9 9 8 11 9 13 11 4 3 6 8 10 13 10 6 4 2 2 2 2 3 3 3 4 4 4 5 5 5 4 4 4 4 3 4 4 3 3
7 9 8 8 8 9 9 9 7 7 8 7 8 7 7 8 8 10 12 4 1 2 2 2 3 3 3 3 3 3 4 4 5 5 5 5 4 4 4 3 3 3 2
7 6 7 8 8 10 9 10 9 8 8 8 5 6 4 6 6 6 8 2 2 2 2 2 3 3 3 3 4 4 4 5 4 3 4 4 4 3 3 3 3 3 2
7 9 9 8 8 9 9 9 9 9 8 7 6 4 3 3 2 2 3 2 2 2 3 3 3 3 3 3 3 3 3 3 3 3 4 4 4 3 3 2 2 3 2
6 7 8 8 8 8 8 9 9 8 8 5 3 2 2 2 1 1 2 3 3 3 3 2 3 3 3 3 2 2 3 3 3 2 2 2 2 2 2 2 2 2 2
6 7 7 7 8 8 8 8 8 8 7 4 3 2 3 2 3 2 2 3 3 3 3 2 2 2 2 3 3 2 2 2 1 1 2 1 1 2 1 2 2 2 2
6 7 7 7 7 8 8 7 7 7 5 3 0 1 0 2 2 3 3 2 2 2 2 2 2 1 1 2 2 3 2 1 1 1 0 0 0 1 1 1 2 1 1
5 6 7 7 6 6 6 6 5 5 4 2 1 1 0 1 2 2 2 1 0 0 1 1 2 2 2 2 2 2 2 2 1 1 2 0 1 1 1 1 2 1 2
5 6 5 5 6 6 6 5 5 4 3 3 2 1 0 0 1 1 1 1 2 2 3 3 3 4 4 5 4 4 4 5 2 1 1 1 2 2 1 1 2 2 2
5 5 5 5 5 5 5 5 5 4 4 3 2 2 2 2 2 2 2 3 4 4 5 4 5 7 7 6 7 7 7 7 6 6 3 3 3 3 3 3 3 3 3
Wind_Direction
51 45 44 43 52 59 54 34 5 325 312 291 284 277 263 260 258 244 243 231 226 233 223 227 233 226 226 222 218 223 233 231 257 267 249 197 199 217 224 220 228 231 235
52 53 41 28 29 42 40 23 7 345 330 319 307 295 288 280 271 260 260 245 237 236 234 230 237 226 230 230 227 228 227 227 247 266 255 207 214 210 217 208 221 229 235
50 55 49 37 31 30 23 19 12 355 343 332 320 308 305 297 288 280 277 273 261 255 253 246 247 238 240 238 229 228 230 232 234 253 264 187 206 182 204 213 219 226 227
43 49 43 24 24 21 13 9 6 352 341 331 324 310 302 299 285 280 267 270 273 266 260 254 250 241 243 237 236 236 234 233 234 243 251 242 208 207 222 215 228 220 228
33 40 34 19 16 13 12 2 358 354 348 339 330 326 312 293 291 288 273 270 265 267 261 255 252 250 249 244 243 247 240 243 245 243 252 229 193 193 208 212 236 213 220
33 33 22 14 6 7 5 360 1 359 358 350 351 340 329 311 312 304 289 269 259 257 263 262 255 249 251 252 253 256 247 236 245 245 248 245 239 229 215 202 200 191 241
35 24 13 2 4 2 358 356 358 352 346 345 343 343 331 324 322 316 300 277 268 265 266 266 268 252 252 258 264 261 259 250 241 241 246 242 249 214 187 197 203 205 215
47 29 12 3 358 352 350 347 343 339 334 328 325 327 322 315 323 321 316 298 285 278 277 276 271 273 268 262 265 267 263 256 249 251 254 258 249 206 195 205 207 200 127
29 15 3 356 342 338 333 330 326 319 317 310 305 306 302 300 309 310 310 299 282 279 276 274 273 275 276 278 272 264 267 265 257 254 256 257 237 205 191 173 187 180 191
8 351 341 331 318 315 312 309 299 294 295 304 300 293 290 292 300 303 305 291 288 287 280 269 268 266 276 280 276 278 280 280 283 278 266 260 242 217 196 195 186 194 174
337 327 321 320 311 302 300 289 285 291 289 289 290 291 287 282 294 301 302 294 287 292 292 292 293 291 296 291 282 269 264 281 263 259 259 237 192 190 190 187 188 200 176
331 320 323 320 317 306 297 293 282 280 285 290 293 298 296 298 300 304 305 300 298 290 286 292 295 294 302 301 297 287 288 292 245 259 232 226 196 181 172 169 159 104 60
332 321 316 314 305 300 298 297 295 286 285 292 300 308 314 321 313 323 326 316 307 303 296 293 299 309 312 307 303 300 299 250 245 255 245 205 158 125 114 110 104 93 74
322 319 315 308 309 303 296 288 287 284 284 289 295 302 309 311 315 328 302 289 310 302 308 316 314 313 304 309 312 310 343 295 273 276 226 89 107 129 134 121 125 121 109
320 310 306 304 305 304 293 293 283 280 272 281 279 274 290 304 306 299 308 312 300 291 297 315 333 341 347 0 355 18 8 301 286 281 171 128 122 120 102 96 107 126 101
311 308 311 305 305 300 299 298 284 287 279 271 271 276 319 285 315 316 309 301 305 288 298 331 352 355 11 2 359 359 22 359 6 347 14 82 109 104 102 81 75 81 94
304 304 302 298 298 298 298 295 303 305 297 275 272 307 303 303 318 319 312 290 148 306 296 332 19 25 25 28 30 40 47 31 34 43 55 69 78 89 91 87 80 82 85
293 287 286 294 295 294 291 291 287 286 286 276 250 259 280 298 315 325 322 280 122 51 29 12 26 25 24 32 41 45 44 42 42 42 48 42 57 78 82 86 77 83 89
300 294 295 293 290 288 288 282 274 268 264 262 265 251 248 299 290 328 345 316 194 129 65 63 38 31 38 34 35 42 41 40 34 53 58 57 42 72 84 77 79 70 125
298 290 290 296 295 293 291 287 286 275 265 255 247 251 285 276 270 360 19 23 63 81 80 79 55 34 32 30 34 40 51 52 50 48 43 38 41 49 82 111 140 169 165
294 295 295 290 293 294 294 289 289 287 275 246 226 238 312 245 151 52 49 39 36 44 45 56 58 49 26 27 30 48 49 49 36 57 81 81 83 105 85 79 103 95 113
293 299 298 296 298 298 299 299 293 291 286 243 191 68 55 72 96 92 76 62 43 34 14 23 44 39 17 14 5 32 65 90 84 62 65 57 74 89 101 108 113 103 105
304 306 304 303 304 305 301 303 304 304 305 306 282 167 57 85 99 104 104 94 71 48 23 10 14 2 9 356 4 357 348 19 41 357 313 355 21 107 100 127 127 127 144
314 313 314 314 318 318 315 316 320 328 332 336 336 3 80 109 116 117 114 107 272 267 285 293 296 296 310 312 327 325 322 318 334 326 323 234 171 145 142 143 168 149 159
321 320 319 323 322 325 323 323 325 329 335 337 332 319 72 160 181 192 189 239 266 262 254 257 261 269 269 268 267 268 271 265 240 295 244 241 204 178 168 201 181 180 189
313 315 312 317 318 323 321 321 320 321 321 320 312 296 280 266 261 252 241 242 249 252 254 251 250 247 253 255 251 248 247 243 230 222 214 213 203 199 201 211 196 209 204